GW5903 Weather Reports


Display with metric or nautical units.
time (UTC)temp
F
wind
direction
speed
MPH
gust
MPH
rain 1hr
in
rain 24hr
in
rain mn
in
humidity
%
barometer
mb
20260506193057 61 267 14.0 25.0 0.00 0.03 0.00 33 1017.2
20260506192537 61 250 16.0 25.0 0.00 0.03 0.00 33 1017.3
20260506192041 62 286 14.0 25.0 0.00 0.03 0.00 30 1017.4
20260506191546 61 299 15.0 22.0 0.00 0.03 0.00 32 1017.4
20260506191041 61 281 13.0 22.0 0.00 0.03 0.00 32 1017.5
20260506190538 60 255 13.0 23.0 0.00 0.03 0.00 32 1017.5
20260506190049 60 300 16.0 23.0 0.00 0.03 0.00 33 1017.5
20260506185538 59 275 14.0 25.0 0.00 0.03 0.00 33 1017.5
20260506185041 60 267 17.0 25.0 0.00 0.03 0.00 33 1017.6
20260506184549 59 268 12.0 28.0 0.00 0.03 0.00 33 1017.5
20260506184038 60 257 17.0 28.0 0.00 0.03 0.00 33 1017.6
20260506183538 59 261 16.0 24.0 0.00 0.03 0.00 32 1017.7
20260506183046 59 256 11.0 21.0 0.00 0.03 0.00 34 1017.6
20260506182538 58 300 14.0 22.0 0.00 0.03 0.00 35 1017.7
20260506182037 59 269 16.0 22.0 0.00 0.03 0.00 33 1017.7
20260506181551 58 313 13.0 25.0 0.00 0.03 0.00 33 1017.8
20260506181038 58 234 17.0 25.0 0.00 0.03 0.00 36 1017.9
20260506180541 58 262 12.0 20.0 0.00 0.03 0.00 34 1017.8
20260506180054 58 282 15.0 24.0 0.00 0.03 0.00 38 1017.9
20260506175538 57 262 13.0 28.0 0.00 0.03 0.00 37 1018.0
20260506175040 57 256 14.0 28.0 0.00 0.03 0.00 39 1018.1
20260506174545 56 236 13.0 22.0 0.00 0.03 0.00 40 1018.0
20260506174038 56 248 11.0 22.0 0.00 0.03 0.00 41 1018.1
20260506173539 56 274 13.0 22.0 0.00 0.03 0.00 39 1018.2
20260506173050 56 290 14.0 21.0 0.00 0.03 0.00 41 1018.0
20260506172539 55 257 11.0 20.0 0.00 0.03 0.00 42 1017.9
20260506172039 55 244 11.0 20.0 0.00 0.03 0.00 43 1017.9
20260506171556 54 262 12.0 22.0 0.00 0.03 0.00 44 1018.1
20260506171040 54 259 13.0 22.0 0.00 0.03 0.00 44 1018.1
20260506170540 54 224 14.0 20.0 0.00 0.03 0.00 44 1017.9
20260506170052 54 252 14.0 23.0 0.00 0.03 0.00 45 1017.9
20260506165539 53 254 12.0 23.0 0.00 0.03 0.00 48 1018.0
20260506165038 53 246 13.0 19.0 0.00 0.03 0.00 45 1017.7
20260506164603 53 268 10.0 20.0 0.00 0.03 0.00 47 1017.8
20260506164041 53 252 13.0 24.0 0.00 0.03 0.00 45 1017.9
20260506163537 53 269 12.0 24.0 0.00 0.03 0.00 49 1017.9
20260506163048 51 295 13.0 20.0 0.00 0.03 0.00 47 1017.9
20260506162539 52 262 11.0 21.0 0.00 0.03 0.00 47 1017.9
20260506162038 52 246 13.0 21.0 0.00 0.03 0.00 50 1017.9
20260506161553 52 288 12.0 18.0 0.00 0.03 0.00 49 1017.8
20260506161038 51 252 14.0 19.0 0.00 0.03 0.00 50 1017.7
20260506160538 51 250 13.0 19.0 0.00 0.03 0.00 51 1017.7
20260506160049 50 255 12.0 21.0 0.00 0.03 0.00 52 1017.7
20260506155538 50 245 14.0 21.0 0.00 0.03 0.00 53 1017.6
20260506155041 50 267 14.0 20.0 0.00 0.03 0.00 52 1017.7
20260506154601 50 257 11.0 20.0 0.00 0.03 0.00 53 1017.7
20260506154038 50 271 13.0 22.0 0.00 0.03 0.00 55 1017.8
20260506153538 48 263 16.0 23.0 0.00 0.03 0.00 56 1017.8
20260506153049 48 269 16.0 23.0 0.00 0.03 0.00 57 1017.6
20260506152537 48 248 16.0 23.0 0.00 0.03 0.00 57 1017.5
20260506152037 48 246 17.0 23.0 0.00 0.03 0.00 55 1017.5
20260506151550 47 250 17.0 23.0 0.00 0.03 0.00 58 1017.4
20260506151038 48 252 15.0 22.0 0.00 0.03 0.00 60 1017.3
20260506150538 47 267 15.0 21.0 0.00 0.03 0.00 59 1017.5
20260506150051 47 246 15.0 20.0 0.00 0.03 0.00 59 1017.6
20260506145540 47 257 14.0 19.0 0.00 0.03 0.00 60 1017.7
20260506145039 46 253 13.0 19.0 0.00 0.03 0.00 61 1017.6
20260506144600 46 269 13.0 20.0 0.00 0.03 0.00 62 1017.7
20260506144038 45 271 15.0 20.0 0.00 0.03 0.00 63 1017.7
20260506143538 45 255 15.0 22.0 0.00 0.03 0.00 63 1017.6
20260506143049 44 262 17.0 22.0 0.00 0.03 0.00 64 1017.7
20260506142538 44 261 16.0 20.0 0.00 0.03 0.00 65 1017.7
20260506142038 44 256 14.0 21.0 0.00 0.03 0.00 67 1017.6
20260506141548 44 254 17.0 21.0 0.00 0.03 0.00 66 1017.7
20260506141038 43 267 15.0 22.0 0.00 0.03 0.00 67 1017.6
20260506140541 43 263 17.0 22.0 0.00 0.03 0.00 65 1017.5
20260506140100 43 259 16.0 20.0 0.00 0.03 0.00 67 1017.3
20260506135541 43 259 12.0 17.0 0.00 0.03 0.00 68 1017.6
20260506135040 43 260 12.0 18.0 0.00 0.03 0.00 68 1017.6
20260506134546 42 260 13.0 19.0 0.00 0.03 0.00 69 1017.5
20260506134040 42 248 14.0 21.0 0.00 0.03 0.00 70 1017.5
20260506133540 42 257 16.0 22.0 0.00 0.03 0.00 70 1017.4
20260506133052 41 277 15.0 24.0 0.00 0.03 0.00 69 1017.2
20260506132540 42 252 17.0 24.0 0.00 0.03 0.00 70 1017.1
20260506132044 41 246 17.0 23.0 0.00 0.03 0.00 70 1017.0
20260506131544 41 269 17.0 23.0 0.00 0.03 0.00 69 1017.4
20260506131041 41 259 15.0 22.0 0.00 0.03 0.00 70 1017.3
20260506130541 41 263 14.0 22.0 0.00 0.03 0.00 72 1017.4
20260506130050 40 249 13.0 22.0 0.00 0.03 0.00 72 1017.4
20260506125540 40 267 16.0 25.0 0.00 0.03 0.00 73 1017.3
20260506125040 40 267 18.0 25.0 0.00 0.03 0.00 74 1016.9
20260506124552 39 267 14.0 19.0 0.00 0.03 0.00 75 1016.9
20260506124040 39 271 15.0 19.0 0.00 0.03 0.00 75 1016.7
20260506123543 39 259 12.0 16.0 0.00 0.03 0.00 76 1016.9
20260506123046 38 268 10.0 16.0 0.00 0.03 0.00 76 1017.3
20260506122540 38 292 8.0 12.0 0.00 0.03 0.00 77 1017.2
20260506122039 38 294 6.0 12.0 0.00 0.03 0.00 77 1017.2
20260506121545 37 294 8.0 12.0 0.00 0.03 0.00 78 1017.1
20260506121040 37 298 7.0 10.0 0.00 0.03 0.00 79 1016.9
20260506120544 36 292 5.0 10.0 0.00 0.03 0.00 80 1016.9
20260506120046 36 294 5.0 8.0 0.00 0.03 0.00 80 1016.9
20260506115541 36 293 3.0 6.0 0.00 0.03 0.00 80 1016.7
20260506115041 36 288 3.0 6.0 0.00 0.03 0.00 80 1016.7
20260506114556 36 290 4.0 7.0 0.00 0.03 0.00 80 1016.8
20260506114040 36 295 4.0 7.0 0.00 0.03 0.00 79 1016.8
20260506113540 36 297 5.0 7.0 0.00 0.03 0.00 79 1016.7
20260506113048 37 307 4.0 7.0 0.00 0.03 0.00 79 1016.7
20260506112540 37 300 4.0 7.0 0.00 0.03 0.00 78 1016.7
20260506112040 37 302 4.0 7.0 0.00 0.03 0.00 77 1016.6
20260506111551 37 302 5.0 8.0 0.00 0.03 0.00 77 1016.7
20260506111044 38 303 4.0 10.0 0.00 0.03 0.00 77 1016.7
20260506110540 38 311 6.0 10.0 0.00 0.03 0.00 76 1016.5
20260506110048 38 303 6.0 10.0 0.00 0.03 0.00 76 1016.6
20260506105537 38 298 6.0 10.0 0.00 0.03 0.00 76 1016.7
20260506105039 38 301 7.0 11.0 0.00 0.03 0.00 76 1016.4
20260506104557 38 281 7.0 11.0 0.00 0.03 0.00 77 1016.5
20260506104039 38 306 6.0 11.0 0.00 0.03 0.00 78 1016.5
20260506103537 38 299 6.0 11.0 0.00 0.03 0.00 77 1016.3
20260506103058 38 294 6.0 10.0 0.00 0.03 0.00 77 1016.3
20260506102539 39 291 7.0 10.0 0.00 0.03 0.00 76 1016.2
20260506102039 39 300 7.0 10.0 0.00 0.03 0.00 76 1016.1
20260506101551 39 298 7.0 11.0 0.00 0.03 0.00 75 1016.2
20260506101039 40 294 8.0 11.0 0.00 0.03 0.00 75 1016.2
20260506100539 40 296 7.0 11.0 0.00 0.03 0.00 75 1016.1
20260506100053 40 299 7.0 12.0 0.00 0.03 0.00 75 1016.1
20260506095540 40 286 7.0 12.0 0.00 0.03 0.00 74 1016.2
20260506095040 41 296 7.0 12.0 0.00 0.03 0.00 74 1016.1
20260506094548 41 298 8.0 12.0 0.00 0.03 0.00 74 1016.1
20260506094037 40 265 9.0 12.0 0.00 0.03 0.00 74 1016.2
20260506093539 40 284 9.0 12.0 0.00 0.03 0.00 75 1016.1
20260506093043 40 279 8.0 11.0 0.00 0.03 0.00 75 1016.2
20260506092538 40 262 7.0 11.0 0.00 0.03 0.00 75 1016.1
20260506092039 40 275 8.0 10.0 0.00 0.03 0.00 74 1016.0
20260506091550 41 258 7.0 10.0 0.00 0.03 0.00 73 1016.1
20260506091040 41 255 5.0 9.0 0.00 0.03 0.00 72 1016.0
20260506090538 41 267 7.0 12.0 0.00 0.03 0.00 71 1016.0
20260506090042 41 290 6.0 12.0 0.00 0.03 0.00 71 1016.0
20260506085537 41 287 6.0 9.0 0.00 0.03 0.00 71 1016.1
20260506085037 41 290 5.0 11.0 0.00 0.03 0.00 71 1016.0
20260506084553 41 298 7.0 11.0 0.00 0.03 0.00 72 1016.1
20260506084038 41 311 5.0 12.0 0.00 0.03 0.00 73 1016.1
20260506083539 41 281 8.0 12.0 0.00 0.03 0.00 72 1016.2
20260506083051 42 269 9.0 11.0 0.00 0.03 0.00 70 1016.3
20260506082539 43 280 7.0 14.0 0.00 0.03 0.00 67 1016.2
20260506082038 44 273 9.0 14.0 0.00 0.03 0.00 65 1016.2
20260506081549 44 280 8.0 13.0 0.00 0.03 0.00 62 1016.3
20260506081040 45 273 9.0 19.0 0.00 0.03 0.00 61 1016.3
20260506080538 45 286 12.0 19.0 0.00 0.03 0.00 60 1016.3
20260506073050 44 319 9.0 13.0 0.00 0.03 0.00 64 1016.3
20260506072538 44 315 8.0 13.0 0.00 0.03 0.00 64 1016.4
20260506072037 45 305 8.0 15.0 0.00 0.03 0.00 64 1016.4
20260506071550 45 286 10.0 15.0 0.00 0.03 0.00 64 1016.2
20260506071038 45 296 9.0 12.0 0.00 0.03 0.00 64 1016.3
20260506070538 45 298 8.0 12.0 0.00 0.03 0.00 65 1016.5
20260506062039 43 123 4.0 7.0 0.00 0.03 0.00 74 1016.6
20260506061553 43 113 4.0 5.0 0.00 0.03 0.00 71 1016.4
20260506061041 44 294 0.0 8.0 0.00 0.03 0.00 69 1016.4
20260506060539 45 294 4.0 12.0 0.00 0.03 0.00 66 1016.3
20260506051043 44 309 9.0 17.0 0.01 0.03 0.03 72 1016.3
20260506050538 45 325 11.0 20.0 0.02 0.03 0.03 72 1016.2
20260506045040 44 346 13.0 20.0 0.03 0.03 0.03 73 1016.0
20260506044619 44 324 12.0 17.0 0.03 0.03 0.03 74 1015.8
20260506044038 44 333 7.0 12.0 0.03 0.03 0.03 74 1015.9
20260506043538 44 317 7.0 13.0 0.03 0.03 0.03 74 1015.9
20260506043046 44 323 9.0 22.0 0.03 0.03 0.03 76 1015.8
20260506042539 44 334 13.0 22.0 0.03 0.03 0.03 76 1015.7
20260506042039 44 339 14.0 19.0 0.03 0.03 0.03 76 1015.8
20260506041549 44 331 13.0 20.0 0.03 0.03 0.03 77 1015.7
20260506041039 44 350 14.0 20.0 0.02 0.02 0.02 76 1015.4
20260506040539 44 326 15.0 20.0 0.01 0.01 0.01 77 1015.6
20260506040046 44 334 15.0 24.0 0.01 0.01 0.01 75 1015.5
20260506035536 45 339 17.0 25.0 0.00 0.00 0.00 73 1015.5
20260506035036 46 342 19.0 25.0 0.00 0.00 0.00 69 1015.2
20260506034543 46 5 15.0 25.0 0.00 0.00 0.00 69 1014.9
20260506034036 46 342 19.0 25.0 0.00 0.00 0.00 68 1014.9
20260506033537 46 350 18.0 28.0 0.00 0.00 0.00 68 1014.7
20260506033047 46 317 20.0 28.0 0.00 0.00 0.00 68 1014.2
20260506032540 46 346 18.0 29.0 0.00 0.00 0.00 68 1014.7
20260506032042 46 5 21.0 29.0 0.00 0.00 0.00 68 1014.5
20260506031543 46 339 20.0 25.0 0.00 0.00 0.00 68 1014.5
20260506031041 47 360 19.0 29.0 0.00 0.00 0.00 67 1014.4
20260506030540 47 335 19.0 29.0 0.00 0.00 0.00 65 1014.3
20260506030042 48 360 20.0 25.0 0.00 0.00 0.00 64 1014.2
20260506025539 48 348 16.0 24.0 0.00 0.00 0.00 62 1014.2
20260506025036 49 342 17.0 24.0 0.00 0.00 0.00 61 1014.3
20260506024547 49 350 17.0 24.0 0.00 0.00 0.00 61 1014.1
20260506024036 49 323 13.0 22.0 0.00 0.00 0.00 62 1014.3
20260506023538 49 331 12.0 18.0 0.00 0.00 0.00 62 1014.0
20260506023057 48 279 6.0 9.0 0.00 0.00 0.00 62 1013.7
20260506022536 48 265 6.0 8.0 0.00 0.00 0.00 61 1013.6
20260506022037 48 272 4.0 7.0 0.00 0.00 0.00 60 1013.6
20260506021555 49 280 4.0 7.0 0.00 0.00 0.00 60 1013.6
20260506021038 49 277 4.0 6.0 0.00 0.00 0.00 59 1013.6
20260506020539 49 290 4.0 7.0 0.00 0.00 0.00 59 1013.6
20260506020043 50 307 4.0 8.0 0.00 0.00 0.00 59 1013.6
20260506015537 50 294 5.0 10.0 0.00 0.00 0.00 58 1013.6
20260506015039 51 284 6.0 11.0 0.00 0.00 0.00 57 1013.6
20260506014545 51 286 7.0 13.0 0.00 0.00 0.00 56 1013.4
20260506014040 51 288 8.0 15.0 0.00 0.00 0.00 56 1013.3
20260506013536 51 306 10.0 16.0 0.00 0.00 0.00 55 1013.4
20260506013040 51 292 10.0 19.0 0.00 0.00 0.00 54 1013.3
20260506012538 52 288 12.0 19.0 0.00 0.00 0.00 53 1013.2
20260506012039 53 300 15.0 22.0 0.00 0.00 0.00 51 1013.0
20260506011537 53 290 13.0 22.0 0.00 0.00 0.00 51 1013.2
20260506011040 53 306 15.0 21.0 0.00 0.00 0.00 48 1013.4
20260506010538 53 300 12.0 20.0 0.00 0.00 0.00 48 1013.0
20260506010055 53 281 10.0 14.0 0.00 0.00 0.00 51 1012.8
20260506005537 54 273 10.0 14.0 0.00 0.00 0.00 51 1012.8
20260506005041 54 276 10.0 14.0 0.00 0.00 0.00 50 1012.6
20260506004552 54 278 8.0 16.0 0.00 0.00 0.00 50 1012.8
20260506004038 54 276 11.0 19.0 0.00 0.00 0.00 49 1012.9
20260506003538 55 277 12.0 19.0 0.00 0.00 0.00 47 1012.9
20260506003050 55 258 12.0 20.0 0.00 0.00 0.00 47 1012.9
20260506002538 56 282 12.0 20.0 0.00 0.00 0.00 46 1012.5
20260506002038 56 276 14.0 23.0 0.00 0.00 0.00 45 1012.7
20260506001553 57 281 14.0 23.0 0.00 0.00 0.00 44 1012.8
20260506001038 58 277 13.0 21.0 0.00 0.00 0.00 42 1012.8
20260506000539 58 269 15.0 21.0 0.00 0.00 0.00 41 1012.8
20260506000052 58 281 12.0 21.0 0.00 0.00 0.00 43 1012.7
20260505235541 58 262 15.0 22.0 0.00 0.00 0.00 43 1012.8
20260505235038 58 267 15.0 22.0 0.00 0.00 0.00 42 1012.7
20260505234602 58 253 16.0 22.0 0.00 0.00 0.00 41 1012.8
20260505234042 58 235 15.0 20.0 0.00 0.00 0.00 41 1012.7
20260505233541 58 245 10.0 18.0 0.00 0.00 0.00 43 1012.8
20260505233047 57 257 10.0 16.0 0.00 0.00 0.00 47 1012.9
20260505232538 58 257 13.0 15.0 0.00 0.00 0.00 46 1012.9
20260505232040 58 283 11.0 17.0 0.00 0.00 0.00 44 1013.0
20260505231549 57 292 13.0 17.0 0.00 0.00 0.00 44 1013.0
20260505231038 56 263 10.0 17.0 0.00 0.00 0.00 50 1012.9
20260505230538 56 247 11.0 17.0 0.00 0.00 0.00 49 1012.8
20260505230047 57 246 11.0 15.0 0.00 0.00 0.00 49 1012.8
20260505225538 56 265 10.0 15.0 0.00 0.00 0.00 51 1012.7
20260505225039 56 268 10.0 17.0 0.00 0.00 0.00 51 1012.9
20260505224548 56 275 12.0 20.0 0.00 0.00 0.00 51 1012.8
20260505224040 55 271 14.0 24.0 0.00 0.00 0.00 52 1013.0
20260505223537 55 278 17.0 32.0 0.00 0.00 0.00 52 1013.3
20260505223044 56 277 21.0 32.0 0.00 0.00 0.00 49 1013.4
20260505222545 57 268 21.0 29.0 0.00 0.00 0.00 48 1013.4
20260505222038 57 265 16.0 25.0 0.00 0.00 0.00 49 1013.4
20260505221547 57 292 18.0 25.0 0.00 0.00 0.00 47 1013.3
20260505221038 57 276 17.0 25.0 0.00 0.00 0.00 46 1013.5
20260505220542 57 276 15.0 22.0 0.00 0.00 0.00 48 1013.4
20260505220051 56 248 13.0 21.0 0.00 0.00 0.00 51 1013.4
20260505215538 56 304 8.0 20.0 0.00 0.00 0.00 51 1013.3
20260505215042 56 282 8.0 13.0 0.00 0.00 0.00 52 1013.4
20260505214604 56 305 7.0 12.0 0.00 0.00 0.00 52 1013.3
20260505214038 55 288 3.0 11.0 0.00 0.00 0.00 53 1013.4
20260505213541 55 321 5.0 13.0 0.00 0.00 0.00 54 1013.4
20260505213056 56 279 8.0 13.0 0.00 0.00 0.00 53 1013.6
20260505212542 56 291 5.0 16.0 0.00 0.00 0.00 54 1013.6
20260505212042 56 280 9.0 19.0 0.00 0.00 0.00 54 1013.6
20260505211549 56 300 11.0 20.0 0.00 0.00 0.00 53 1013.7
20260505211038 56 247 12.0 20.0 0.00 0.00 0.00 53 1013.8
20260505210540 55 217 9.0 13.0 0.00 0.00 0.00 56 1013.7
20260505210057 55 238 7.0 14.0 0.00 0.00 0.00 55 1013.7
20260505205542 56 276 9.0 14.0 0.00 0.00 0.00 55 1013.8
20260505205040 55 302 7.0 14.0 0.00 0.00 0.00 56 1013.9
20260505204558 55 284 8.0 14.0 0.00 0.00 0.00 56 1014.1
20260505204038 55 292 10.0 14.0 0.00 0.00 0.00 55 1014.2
20260505203538 56 268 9.0 14.0 0.00 0.00 0.00 54 1014.2
20260505203052 56 252 10.0 17.0 0.00 0.00 0.00 55 1014.3
20260505202537 55 262 9.0 17.0 0.00 0.00 0.00 55 1014.3
20260505202038 56 290 11.0 16.0 0.00 0.00 0.00 54 1014.2
20260505201554 56 290 12.0 20.0 0.00 0.00 0.00 53 1014.1
20260505201042 57 294 13.0 20.0 0.00 0.00 0.00 54 1014.1
20260505200538 57 295 12.0 21.0 0.00 0.00 0.00 54 1014.1
20260505200058 56 250 13.0 21.0 0.00 0.00 0.00 53 1014.1
20260505195538 57 271 13.0 21.0 0.00 0.00 0.00 54 1014.1
20260505195037 56 246 13.0 19.0 0.00 0.00 0.00 58 1014.1
20260505194554 55 287 11.0 19.0 0.00 0.00 0.00 59 1014.1
20260505194042 56 292 10.0 19.0 0.00 0.00 0.00 60 1014.3
20260505193539 56 302 10.0 16.0 0.00 0.00 0.00 66 1014.3